Time,TemperatureF,DewpointF,PressureIn,WindDirection,WindDirectionDegrees,WindSpeedMPH,WindSpeedGustMPH,Humidity,HourlyPrecipIn,Conditions,Clouds,dailyrainin,SoftwareType,DateUTC
2013-04-25 10:52:00,45.0,33.0,30.14,WNW,296,11.0,17.0,62,-99.99,,,-99.99,,2013-04-25 14:52:00,
2013-04-25 11:02:00,45.0,34.0,30.14,SW,223,13.0,20.0,64,-99.99,,,-99.99,,2013-04-25 15:02:00,
2013-04-25 11:11:00,45.0,34.0,30.14,SW,223,13.0,20.0,64,-99.99,,,-99.99,,2013-04-25 15:11:00,
2013-04-25 11:21:00,45.0,34.0,30.15,SW,230,12.0,19.0,66,-99.99,,,-99.99,,2013-04-25 15:21:00,
2013-04-25 11:33:00,46.0,35.0,30.15,South,170,11.0,18.0,65,-99.99,,,-99.99,,2013-04-25 15:33:00,
2013-04-25 11:42:00,46.0,35.0,30.15,South,170,11.0,18.0,65,-99.99,,,-99.99,,2013-04-25 15:42:00,
2013-04-25 11:53:00,46.0,35.0,30.15,WSW,246,11.0,23.0,65,-99.99,,,-99.99,,2013-04-25 15:53:00,
2013-04-25 12:02:00,47.0,36.0,30.15,SSW,196,9.0,16.0,65,-99.99,,,-99.99,,2013-04-25 16:02:00,
2013-04-25 12:13:00,47.0,36.0,30.15,SSW,196,9.0,16.0,65,-99.99,,,-99.99,,2013-04-25 16:13:00,
2013-04-25 12:24:00,48.0,36.0,30.16,WSW,250,13.0,21.0,62,-99.99,,,-99.99,,2013-04-25 16:24:00,
2013-04-25 12:33:00,47.0,34.0,30.16,WNW,288,12.0,28.0,60,-99.99,,,-99.99,,2013-04-25 16:33:00,
2013-04-25 12:43:00,47.0,34.0,30.16,WNW,288,12.0,28.0,60,-99.99,,,-99.99,,2013-04-25 16:43:00,
2013-04-25 12:53:00,49.0,29.0,30.16,WSW,256,14.0,27.0,45,-99.99,,,-99.99,,2013-04-25 16:53:00,
2013-04-25 13:02:00,49.0,29.0,30.16,West,261,14.0,25.0,46,-99.99,,,-99.99,,2013-04-25 17:02:00,
2013-04-25 13:11:00,49.0,29.0,30.16,West,261,14.0,25.0,46,-99.99,,,-99.99,,2013-04-25 17:11:00,
2013-04-25 13:22:00,50.0,27.0,30.16,WSW,240,15.0,29.0,40,-99.99,,,-99.99,,2013-04-25 17:22:00,
2013-04-25 13:32:00,49.0,29.0,30.16,WSW,250,13.0,30.0,45,-99.99,,,-99.99,,2013-04-25 17:32:00,
2013-04-25 13:42:00,49.0,29.0,30.16,WSW,250,13.0,30.0,45,-99.99,,,-99.99,,2013-04-25 17:42:00,
2013-04-25 13:53:00,49.0,32.0,30.16,West,279,11.0,25.0,51,-99.99,,,-99.99,,2013-04-25 17:53:00,
2013-04-25 14:01:00,50.0,25.0,30.17,South,185,15.0,24.0,38,-99.99,,,-99.99,,2013-04-25 18:01:00,
2013-04-25 14:11:00,50.0,25.0,30.17,South,185,15.0,24.0,38,-99.99,,,-99.99,,2013-04-25 18:11:00,
2013-04-25 14:22:00,51.0,26.0,30.17,West,270,9.0,22.0,38,-99.99,,,-99.99,,2013-04-25 18:22:00,
2013-04-25 14:32:00,51.0,21.0,30.18,WSW,244,12.0,24.0,31,-99.99,,,-99.99,,2013-04-25 18:32:00,
2013-04-25 14:43:00,51.0,21.0,30.18,WSW,244,12.0,24.0,31,-99.99,,,-99.99,,2013-04-25 18:43:00,
2013-04-25 14:53:00,51.0,24.0,30.18,SW,236,10.0,26.0,34,-99.99,,,-99.99,,2013-04-25 18:53:00,
2013-04-25 15:02:00,51.0,25.0,30.19,WSW,237,13.0,21.0,36,-99.99,,,-99.99,,2013-04-25 19:02:00,
2013-04-25 15:12:00,51.0,25.0,30.19,WSW,237,13.0,21.0,36,-99.99,,,-99.99,,2013-04-25 19:12:00,
2013-04-25 15:21:00,50.0,25.0,30.19,WSW,258,10.0,24.0,38,-99.99,,,-99.99,,2013-04-25 19:21:00,
2013-04-25 15:32:00,50.0,28.0,30.19,West,270,13.0,20.0,42,-99.99,,,-99.99,,2013-04-25 19:32:00,
2013-04-25 15:42:00,50.0,28.0,30.19,West,270,13.0,20.0,42,-99.99,,,-99.99,,2013-04-25 19:42:00,
2013-04-25 15:52:00,49.0,30.0,30.20,WNW,291,12.0,22.0,48,-99.99,,,-99.99,,2013-04-25 19:52:00,
2013-04-25 16:02:00,50.0,32.0,30.21,West,280,8.0,24.0,50,-99.99,,,-99.99,,2013-04-25 20:02:00,
2013-04-25 16:11:00,50.0,32.0,30.21,West,280,8.0,24.0,50,-99.99,,,-99.99,,2013-04-25 20:11:00,
2013-04-25 16:22:00,50.0,31.0,30.21,WNW,298,9.0,19.0,48,-99.99,,,-99.99,,2013-04-25 20:22:00,
2013-04-25 16:32:00,50.0,30.0,30.21,SSW,209,6.0,22.0,46,-99.99,,,-99.99,,2013-04-25 20:32:00,
2013-04-25 16:42:00,50.0,30.0,30.21,SSW,209,6.0,22.0,46,-99.99,,,-99.99,,2013-04-25 20:42:00,
2013-04-25 16:52:00,50.0,29.0,30.21,WSW,250,13.0,23.0,45,-99.99,,,-99.99,,2013-04-25 20:52:00,
2013-04-25 17:01:00,49.0,30.0,30.21,West,281,9.0,20.0,47,-99.99,,,-99.99,,2013-04-25 21:01:00,
2013-04-25 17:11:00,49.0,30.0,30.21,West,281,9.0,20.0,47,-99.99,,,-99.99,,2013-04-25 21:11:00,
2013-04-25 17:22:00,50.0,29.0,30.22,NW,315,12.0,21.0,44,-99.99,,,-99.99,,2013-04-25 21:22:00,
2013-04-25 17:33:00,50.0,28.0,30.22,WNW,291,7.0,18.0,43,-99.99,,,-99.99,,2013-04-25 21:33:00,
2013-04-25 17:42:00,50.0,28.0,30.22,WNW,291,7.0,18.0,43,-99.99,,,-99.99,,2013-04-25 21:42:00,
2013-04-25 17:53:00,49.0,32.0,30.22,NW,314,7.0,16.0,51,-99.99,,,-99.99,,2013-04-25 21:53:00,
2013-04-25 18:03:00,49.0,32.0,30.24,NNW,331,8.0,15.0,51,-99.99,,,-99.99,,2013-04-25 22:03:00,
2013-04-25 18:12:00,49.0,32.0,30.24,NNW,331,8.0,15.0,51,-99.99,,,-99.99,,2013-04-25 22:12:00,
2013-04-25 18:22:00,49.0,32.0,30.25,WNW,294,4.0,14.0,52,-99.99,,,-99.99,,2013-04-25 22:22:00,
2013-04-25 18:33:00,49.0,31.0,30.24,West,279,4.0,11.0,49,-99.99,,,-99.99,,2013-04-25 22:33:00,
2013-04-25 18:42:00,49.0,31.0,30.24,West,279,4.0,11.0,49,-99.99,,,-99.99,,2013-04-25 22:42:00,
2013-04-25 18:53:00,49.0,32.0,30.24,West,275,1.0,12.0,51,-99.99,,,-99.99,,2013-04-25 22:53:00,
2013-04-25 19:02:00,49.0,32.0,30.25,NNW,338,5.0,10.0,51,-99.99,,,-99.99,,2013-04-25 23:02:00,
2013-04-25 19:12:00,49.0,32.0,30.25,NNW,338,5.0,10.0,51,-99.99,,,-99.99,,2013-04-25 23:12:00,
2013-04-25 19:22:00,49.0,32.0,30.25,WNW,300,5.0,11.0,52,-99.99,,,-99.99,,2013-04-25 23:22:00,
2013-04-25 19:32:00,49.0,32.0,30.26,West,274,4.0,11.0,51,-99.99,,,-99.99,,2013-04-25 23:32:00,
2013-04-25 19:42:00,49.0,32.0,30.26,West,274,4.0,11.0,51,-99.99,,,-99.99,,2013-04-25 23:42:00,
2013-04-25 19:52:00,48.0,30.0,30.26,WSW,258,5.0,10.0,49,-99.99,,,-99.99,,2013-04-25 23:52:00,
2013-04-25 20:01:00,49.0,31.0,30.26,WSW,252,4.0,8.0,49,-99.99,,,-99.99,,2013-04-26 00:01:00,
2013-04-25 20:11:00,49.0,31.0,30.26,WSW,252,4.0,8.0,49,-99.99,,,-99.99,,2013-04-26 00:11:00,
2013-04-25 20:21:00,49.0,30.0,30.27,WSW,244,3.0,7.0,48,-99.99,,,-99.99,,2013-04-26 00:21:00,
2013-04-25 20:32:00,48.0,29.0,30.27,West,276,3.0,9.0,48,-99.99,,,-99.99,,2013-04-26 00:32:00,
2013-04-25 20:42:00,48.0,29.0,30.27,West,276,3.0,9.0,48,-99.99,,,-99.99,,2013-04-26 00:42:00,
2013-04-25 20:52:00,48.0,31.0,30.27,West,275,2.0,5.0,51,-99.99,,,-99.99,,2013-04-26 00:52:00,
2013-04-25 21:01:00,47.0,30.0,30.27,West,275,0.0,4.0,52,-99.99,,,-99.99,,2013-04-26 01:01:00,
2013-04-25 21:11:00,47.0,30.0,30.27,West,275,0.0,4.0,52,-99.99,,,-99.99,,2013-04-26 01:11:00,
2013-04-25 21:21:00,46.0,30.0,30.27,West,275,1.0,3.0,53,-99.99,,,-99.99,,2013-04-26 01:21:00,
2013-04-25 21:32:00,46.0,29.0,30.29,West,275,2.0,4.0,52,-99.99,,,-99.99,,2013-04-26 01:32:00,
2013-04-25 21:42:00,46.0,29.0,30.29,West,275,2.0,4.0,52,-99.99,,,-99.99,,2013-04-26 01:42:00,
2013-04-25 21:52:00,45.0,28.0,30.29,WSW,245,3.0,6.0,52,-99.99,,,-99.99,,2013-04-26 01:52:00,
2013-04-25 22:02:00,45.0,29.0,30.30,WSW,245,2.0,5.0,53,-99.99,,,-99.99,,2013-04-26 02:02:00,
2013-04-25 22:12:00,45.0,29.0,30.30,WSW,245,2.0,5.0,53,-99.99,,,-99.99,,2013-04-26 02:12:00,
2013-04-25 22:21:00,45.0,29.0,30.31,WSW,245,2.0,4.0,53,-99.99,,,-99.99,,2013-04-26 02:21:00,
2013-04-25 22:32:00,44.0,28.0,30.32,WSW,245,1.0,5.0,54,-99.99,,,-99.99,,2013-04-26 02:32:00,
2013-04-25 22:42:00,44.0,28.0,30.32,WSW,245,1.0,5.0,54,-99.99,,,-99.99,,2013-04-26 02:42:00,
2013-04-25 22:52:00,44.0,29.0,30.32,WSW,245,2.0,5.0,55,-99.99,,,-99.99,,2013-04-26 02:52:00,
2013-04-25 23:01:00,44.0,29.0,30.33,WSW,245,2.0,4.0,55,-99.99,,,-99.99,,2013-04-26 03:01:00,
2013-04-25 23:11:00,44.0,29.0,30.33,WSW,245,2.0,4.0,55,-99.99,,,-99.99,,2013-04-26 03:11:00,
2013-04-25 23:22:00,43.0,28.0,30.33,WSW,245,0.0,3.0,56,-99.99,,,-99.99,,2013-04-26 03:22:00,
2013-04-25 23:33:00,43.0,28.0,30.33,WSW,245,0.0,1.0,56,-99.99,,,-99.99,,2013-04-26 03:33:00,
2013-04-25 23:43:00,43.0,28.0,30.33,WSW,245,0.0,1.0,56,-99.99,,,-99.99,,2013-04-26 03:43:00,